Location: Emblem
(62.4273°N, 6.4710°E)
Time: 15:43:09
(UTC+02:00)

Altair - Pass Details

Date: 08 February 2023
Orbit: 1501 x 1682 km, 47.2° (Epoch: 31 March)

Event Time Altitude Azimuth Distance (km) Brightness Sun altitude
Rises 19:44:07 0° 226° (SW) 4,751 10.7 -19.6°
Reaches altitude 10° 19:47:39 10° 216° (SW) 3,796 9.9 -20.0°
Maximum altitude 19:55:30 29° 161° (SSE) 2,640 8.5 -20.9°
Enters shadow 19:58:53 24° 131° (SE) 2,919 8.5 -21.3°
